sat.trackr.live / text

‹ back to catalog

STARLINK-4745

NORAD 53844 · 2022-114AC

PAYLOAD ACTIVE UNKNOWN

§ Identity

Operator
Country
US
Launch date
2022-09-19
Launch site
AFETR
Launch vehicle
Mass (kg)
RCS (m²)

Purposes: comms

External: N2YO · Heavens-Above · Gunter

§ Orbital elements

Epoch: 2026-05-24T20:51:32.850144Z

Period
95.44 min
Inclination
53.2168°
Eccentricity
0.0001343
Mean motion
15.08857008 rev/d
Perigee alt
538.8 km
Apogee alt
540.6 km
Semi-major
6,917.8 km
B*
-8.2692e-5
RAAN
312.0294°
Arg perigee
104.0925°
Mean anomaly
256.0216°
Rev number
20,447

§ Raw data

STARLINK-47451 53844U 22114AC  26144.86913021 -.00001604  00000+0 -82692-4 0  99942 53844  53.2168 312.0294 0001343 104.0925 256.0216 15.08857008204475

JSON: /api/v1/satellites/53844 · /tle

For live sub-satellite position, see the globe view (requires WebGL).

§ Visibility from observer

Set your observer location to see the next 7 days of passes ≥ 10°. The values pass through the URL so the page stays shareable.

No JS? Fill the form by hand. The geolocation button needs JavaScript.